Terminal Aerodrome Forecast
Issued by NWS Nashville, TN

Home | Current Version | Previous Version | Text Only | Print | Product List | Glossary On
Versions: 1 2 3 4 5 6 7 8 9 10 11 12 13 14 15 16 17 18 19 20 21 22 23 24 25 26 27 28 29 30
000
FTUS44 KOHX 280059 AAA
TAFCSV
TAF AMD
KCSV 280059Z 2801/2824 20005KT P6SM SCT080 BKN090
      TEMPO 2802/2805 2SM TSRA OVC025CB
     FM280500 21010G17KT P6SM OVC060
     FM281100 25006KT P6SM OVC005
     FM281600 28007KT P6SM BKN035=

USA.gov is the U.S. government's official web portal to all federal, state and local government web resources and services.